weather station
Area: 11014 km2
The highest point: Tok (865 m.s.l.)
Total stations: 50
Stations online: 45
Stations offline: 5
Current weather
-6°C

Meteorological map - weather stations in Středočeský

. The meteorological maps show weather information from WARIO weather stations

Weather stations Středočeský

 UpdatesNameStatusTemperatureHumidityWind speedWind direction
16.1.2021 23:04Barochov-7.0 °C82.2 %1.2 m/s NW
16.1.2021 23:03Beroun-5.7 °C77.0 %1.8 m/s W
16.1.2021 23:03Bořanovice-6.3 °C72.5 %1.1 m/s SW
16.1.2021 23:04Jílové u Prahy - Borek-7.4 °C94.1 %0.7 m/s N
10.1.2021 13:35Rakovník-0.4 °C91.6 %0.0 m/s NE
16.1.2021 23:04Králův Dvůr-5.5 °C86.3 %0.0 m/s SW
16.1.2021 23:03Chotětov-5.1 °C84.9 %0.0 m/s W
16.1.2021 23:03Dobřejovice-6.9 °C80.6 %1.0 m/s NW
6.1.2021 10:24Dolní Břežany-0.9 °C89.1 %1.4 m/s W
16.1.2021 23:03Dolní Jirčany-7.5 °C92.3 %1.9 m/s W
16.1.2021 23:04Hovorčovice-6.0 °C82.8 %1.0 m/s W
16.1.2021 23:03Sedlčany-6.2 °C92.1 %0.0 m/s NW
16.1.2021 23:04Kojetice-4.5 °C100.0 %3.1 m/s NW
16.1.2021 23:04Kostelec nad Černými lesy-7.4 °C78.0 %2.7 m/s W
16.1.2021 23:03Krásná Hora nad Vltavou-6.7 °C94.1 %0.7 m/s N
16.1.2021 23:03Květnice-6.1 °C87.8 %1.9 m/s NE
16.1.2021 23:04Libeř-5.6 °C88.4 %0.0 m/s NW
16.1.2021 23:03Zeleneč-6.0 °C87.5 %2.9 m/s W
16.1.2021 23:03Zdice-4.8 °C85.3 %2.2 m/s SW
16.1.2021 23:03Krušovice-6.4 °C89.4 %0.9 m/s W
7.12.2020 12:05Měšice °C %1.6 m/s NE
16.1.2021 23:03Jince-6.5 °C89.5 %2.0 m/s W
16.1.2021 23:03Dolní Jirčany-7.4 °C93.5 %1.1 m/s E
16.1.2021 23:04Cetyně-7.4 °C86.3 %2.9 m/s W
16.1.2021 23:04Srby-7.0 °C93.8 %0.0 m/s N
16.1.2021 23:04Kralupy nad Vltavou-4.5 °C77.0 %2.4 m/s W
16.1.2021 23:03Mrač-6.4 °C94.0 %1.1 m/s W
16.1.2021 23:03Velvary-1.8 °C63.6 %0.0 m/s SW
16.1.2021 23:03Mladá Boleslav-5.1 °C100.0 %0.0 m/s SE
16.1.2021 23:03Líbeznice-5.9 °C82.7 %2.7 m/s SW
16.1.2021 23:03Mšecké Žehrovice-7.7 °C100.0 %2.2 m/s SW
16.1.2021 23:03Odolena voda-5.0 °C81.0 %0.8 m/s NW
16.1.2021 23:03Orlov-7.6 °C92.9 %1.7 m/s SW
16.1.2021 23:03Ostrá-5.3 °C71.7 %1.9 m/s N
16.1.2021 15:24Petrovice-6.3 °C82.8 %1.9 m/s W
16.1.2021 23:04Suchodol-6.5 °C93.8 %1.6 m/s SW
16.1.2021 23:03Říčany-7.1 °C80.4 %0.6 m/s SW
16.1.2021 23:03Semice-4.8 °C88.7 %1.2 m/s NW
16.1.2021 23:04Slaný-6.8 °C89.2 %1.0 m/s SE
16.1.2021 23:04Svojetice-8.3 °C99.8 %2.1 m/s NW
16.1.2021 23:04Roztoky-5.8 °C87.2 %0.6 m/s NE
16.1.2021 23:03Toušice-5.9 °C80.1 %0.0 m/s E
16.1.2021 23:03Třebsko °C %0.8 m/s W
9.1.2021 11:37Srby-17.0 °C %0.0 m/s SW
16.1.2021 23:03Unhošť-7.4 °C82.3 %0.8 m/s NW
16.1.2021 23:03Vrbčany-5.5 °C86.7 %1.5 m/s E
16.1.2021 23:03Všešímy-7.6 °C84.3 %2.1 m/s NE
16.1.2021 23:03Všetaty-4.7 °C83.6 %1.6 m/s W
16.1.2021 23:03Zibohlavy-6.1 °C90.5 %0.0 m/s SW
16.1.2021 23:04Divišov-8.4 °C97.0 %1.3 m/s SE
Email notifications
Enter your email address to subscribe to notifications about news at warioweather.com. Your email address will not be used for any purpose other than sending these emails and will not be provided to any third party. The subscription can be ended at any time.
All data are only indicative. The portal administrator has no responsibility for potentially incorrect data and related consequences. Publishing or further sharing of content from www.warioweather.com is only allowed with written consent from WANET s.r.o.